Location: Barcelona
(41.3830°N, 2.1830°E)
Time: 13:04:01
(UTC+02:00)

ISS - Pass Details

Date: 24 May 2020
Orbit: 417 x 419 km, 51.6° (Epoch: 31 May)

Event Time Altitude Azimuth Distance (km) Brightness Sun altitude
Rises 01:31:09 0° 307° (NW) 2,369 0.6 -27.7°
Reaches altitude 10° 01:33:17 10° 312° (NW) 1,503 -0.4 -27.7°
Enters shadow 01:33:57 15° 315° (NW) 1,238 -0.9 -27.7°
